x

Milford Haven C.b. (03604) Weather Station

7:00 - Tue 21st Oct 2014 All times are BST. 1 hours from GMT.

  • Wind
    24mph, 45mph gusts
  • Air Temp 52°f
  • Sea Pressure 1005mb
  • Milford Haven C.b.
  • Milford Haven C.b.

More Historic Weather Station data

Upgrade to MSW Pro to gain access to the past 30 days of data for over 8000 Wavebouys and Weather Stations around the globe.

Join Pro

Comparision Forecast

View Surf forecast
   
mar. 10/21 7:00 24 45 mph 1005mb 52f
6:00 26 48 mph 1003mb 54f
5:00 29 51 mph 1002mb 57f
4:00 33 48 mph 1001mb 58f
3:00 22 43 mph 1002mb 57f
2:00 21 43 mph 1004mb 56f
1:00 21 39 mph 1005mb 57f
12:00 22 40 mph 1007mb 56f
lun. 10/20 11:00 16 32 mph 1008mb 57f
10:00 15 29 mph 1009mb 56f
9:00 13
mph
1011mb 56f
8:00 15 28 mph 1011mb 57f
7:00 14 28 mph 1012mb 57f
6:00 16 28 mph 1013mb 57f
5:00 15
mph
1013mb 57f
4:00 16
mph
1013mb 57f
3:00 16
mph
1014mb 57f
2:00 15
mph
1014mb 57f
1:00 19 29 mph 1015mb 57f
12:00 14
mph
1015mb 57f
11:00 15 29 mph 1016mb 55f
10:00 15 32 mph 1016mb 56f
9:00 16
mph
1016mb 57f
8:00 17
mph
1015mb 56f
7:00 15 26 mph 1015mb 55f
6:00 16
mph
1015mb 56f
5:00 18
mph
1015mb 56f
4:00 16
mph
1016mb 56f
3:00 17
mph
1016mb 57f
2:00 15
mph
1016mb 56f
1:00 17
mph
1016mb 56f
12:00 15 26 mph 1016mb 57f
dim. 10/19 11:00 19 32 mph 1015mb 57f
10:00 18 31 mph 1015mb 57f
9:00 19 32 mph 1014mb 58f
8:00 19 38 mph 1013mb 58f
7:00 22 36 mph 1013mb 58f
6:00 17 34 mph 1012mb 58f
5:00 19 33 mph 1012mb 58f
4:00 17 34 mph 1012mb 60f
3:00 18 33 mph 1012mb 60f
2:00 19 38 mph 1011mb 61f
1:00 17 33 mph 1011mb 60f
12:00 18 31 mph 1011mb 61f
11:00 16 32 mph 1010mb 61f
10:00 15 31 mph 1010mb 60f
9:00 14 26 mph 1009mb 59f
8:00 15 31 mph 1009mb 59f
7:00 14 29 mph 1008mb 59f
6:00 15 31 mph 1008mb 59f
5:00 17 30 mph 1008mb 60f
4:00 17 30 mph 1008mb 60f
3:00 21 30 mph 1008mb 60f
2:00 18 33 mph 1008mb 60f
1:00 19 31 mph 1008mb 60f
12:00 19 32 mph 1008mb 60f
sam. 10/18 11:00 21 31 mph 1008mb 60f
10:00 22 32 mph 1007mb 60f
9:00 19 33 mph 1007mb 60f
8:00 21 31 mph 1007mb 60f
7:00 21 33 mph 1007mb 60f
6:00 22 31 mph 1006mb 60f
5:00 21 31 mph 1006mb 61f
4:00 22 36 mph 1006mb 61f
3:00 23 36 mph 1006mb 61f
2:00 22 36 mph 1005mb 62f
1:00 21 32 mph 1005mb 63f
12:00 21 31 mph 1005mb 61f
11:00 24 33 mph 1004mb 60f
10:00 23 31 mph 1004mb 60f
9:00 21 32 mph 1003mb 60f
8:00 24 33 mph 1002mb 60f
7:00 22 32 mph 1001mb 60f
6:00 22 31 mph 1001mb 61f
5:00 22 38 mph 1001mb 61f
4:00 24 39 mph 1000mb 60f
3:00 25 43 mph 1000mb 60f
2:00 30 39 mph 1000mb 60f
1:00 26 41 mph 999mb 62f
12:00 28 40 mph 1000mb 62f
ven. 10/17 11:00 26 41 mph 1000mb 61f
10:00 25 45 mph 1000mb 60f
9:00 26 40 mph 1000mb 61f
8:00 25 40 mph 1000mb 60f
7:00 28 40 mph 1001mb 61f
6:00 25 39 mph 1001mb 61f
5:00 25 40 mph 1002mb 62f
4:00 22 36 mph 1003mb 62f
3:00 23 36 mph 1003mb 62f
2:00 19 31 mph 1004mb 61f
1:00 18 30 mph 1005mb 61f
12:00 18 29 mph 1005mb 60f
11:00 19
mph
1005mb 61f
10:00 16
mph
1005mb 60f
9:00 17
mph
1004mb 59f
8:00 15
mph
1004mb 58f